Location: Cleveland
(41.4990°N, 81.6960°W)
Time: 12:39:46
(UTC-04:00)

N. Korean satellite - Visible Passes

Search period start: 25 September 2021 00:00
Search period end: 05 October 2021 00:00
Orbit: 449 x 498 km, 97.3° (Epoch: 24 September)

Date Brightness Start Highest point End Pass type
(mag) Time Alt. Az. Time Alt. Az. Time Alt. Az.
25 Sep 9.7 05:51:06 10° NE 05:53:24 16° E 05:55:43 10° SE visible
27 Sep 7.7 06:27:42 10° NNE 06:31:11 48° E 06:34:41 10° S visible
28 Sep 9.3 06:00:27 10° NE 06:03:17 21° E 06:06:06 10° SSE visible
30 Sep 7.0 06:37:22 10° NNE 06:40:57 67° ESE 06:44:33 10° S visible
01 Oct 8.8 06:09:52 10° NE 06:13:02 28° E 06:16:13 10° SSE visible
02 Oct 9.9 05:43:12 10° ENE 05:45:01 13° E 05:46:49 10° ESE visible
03 Oct 6.6 06:46:56 10° NNE 06:50:35 89° W 06:54:13 10° SSW visible
04 Oct 8.2 06:19:16 10° NNE 06:22:40 38° E 06:26:05 10° SSE visible
